Location: Sungai Dungun
(2.6500°N, 113.4833°E)
Time: 13:03:40
(UTC+00:00)

Daily predictions for brighter satellites

Satellite Brightness Start Highest point End
(mag) Time Altitude Azimuth Time Altitude Azimuth Time Altitude Azimuth
BLOCK DM-SL R/B 3.8 12:04:22 10° W 12:07:36 50° SW 12:07:36 50° SW
Cosmos 1470 4.4 12:06:46 10° SSW 12:09:21 30° WSW 12:09:21 30° WSW
GPS 2-15 Rocket1 4.4 12:11:27 10° W 12:15:16 36° SW 12:15:16 36° SW
Cosmos 2251 Rocket 4.2 12:13:01 10° SSW 12:18:12 52° WNW 12:19:17 44° NW
Ariane H10 4.1 12:30:10 10° WSW 12:34:48 52° S 22:21:26 10° E
Ariane H10+ 4.3 13:12:37 10° W 13:28:34 56° WSW 13:28:34 56° WSW
SL-16 R/B 4.4 19:43:09 18° SE 19:43:09 18° SE 19:44:37 10° SSE
Aurora 2 Rocket 4.4 19:45:25 55° SE 19:45:25 55° SE 19:52:23 10° ESE
Cosmos 2322 Rocket 3.1 20:00:01 46° ENE 20:00:01 46° ENE 20:05:23 10° SSE
Cosmos 2297 Rocket 3.1 20:05:24 42° NE 20:05:24 42° NE 20:09:12 10° NNE
Cosmos 2344 4.0 19:55:36 10° SSW 20:06:19 74° ESE 20:14:13 10° NNE
ARIANE DEB (SYLDA) 4.2 20:10:36 21° SE 20:10:36 21° SE 20:12:31 10° ESE
Delta 202 4.0 20:12:13 87° NNW 20:12:15 87° NNW 20:21:01 10° ENE
ARIANE 5 R/B 4.5 19:06:16 10° W 20:17:37 76° N 20:25:32 10° E
deb Ariane 4.2 20:23:25 73° N 20:23:30 73° N 20:38:13 10° E
Cosmos 2360 Rocket 2.7 20:21:40 18° N 20:25:49 57° ENE 20:31:21 10° SSE
GPS 2-17 Rocket1 4.1 20:27:16 38° NNE 20:27:16 38° NNE 20:31:02 10° E
Meteor 1-27 Rocket 3.6 20:22:48 10° S 20:28:19 82° E 20:33:51 10° N
Cosmos 2285 Rocket 4.4 20:29:16 10° N 20:35:31 63° ENE 20:41:49 10° SSE
PAYLOAD A 3.8 20:36:45 41° N 20:36:45 41° N 20:40:08 10° ENE
Meteor 1-19 Rocket 4.3 20:34:25 10° S 20:40:17 80° E 20:45:56 10° N
ARIANE 5 R/B 2.4 20:38:42 10° NNE 20:43:40 86° ESE 20:48:40 10° S
Cosmos 1408 Rocket 3.4 20:42:16 38° N 20:43:57 85° W 20:48:24 10° S
ATLAS 3B R/B 4.2 20:37:12 10° N 20:44:14 39° ENE 20:51:00 10° SE
Cosmos 2333 Rocket 2.5 20:40:21 10° N 20:46:02 67° ENE 20:51:45 10° SSE
GEOS 3 Rocket 3.8 20:41:33 10° S 20:46:30 46° WSW 20:46:30 46° WSW
CZ-2D R/B 4.2 20:43:07 10° NNE 20:47:21 55° ESE 20:51:36 10° S
Cosmos 2227 Rocket 2.1 20:44:14 10° SSW 20:49:53 87° WNW 20:55:33 10° NNE
Cosmos 1745 Rocket 3.9 20:47:42 10° S 20:53:56 77° W 21:00:14 10° N
Cosmos 1271 Rocket 3.1 20:53:58 10° N 20:57:32 58° E 21:01:08 10° SSE
ERS-1 4.4 20:53:47 10° N 20:58:56 72° WNW 21:04:04 10° SSW
GPS 2-14 Rocket1 3.8 21:00:48 25° NNW 21:00:48 25° NNW 21:03:43 10° NE
Meteor 1-14 Rocket 4.4 20:59:47 10° NNW 21:05:31 53° W 21:11:10 10° S
H-2A R/B 2.1 21:02:03 10° NNE 21:07:25 90° ESE 21:12:40 10° SSW
Meteor 1-11 Rocket 4.4 21:01:59 10° N 21:07:51 62° E 21:13:42 10° SSE
Helios 1B rocket 4.4 21:04:39 10° NE 21:08:07 30° ESE 21:11:36 10° SSE
SWIFT 4.1 21:10:31 15° SW 21:11:20 16° SSW 21:13:54 10° SSE
Cosmos 2219 Rocket 2.5 21:07:08 10° N 21:12:45 70° ENE 21:18:23 10° SSE
Cosmos 1500 Rocket 3.6 21:09:49 10° NNW 21:13:59 49° W 21:18:08 10° SSW
ARIANE 5 DEB (SYLDA) 4.0 21:02:59 21° W 21:15:48 85° S 21:21:14 10° E
Ariane H10 4.0 21:15:12 18° SW 21:16:43 30° SSE 21:22:30 10° E
Cosmos 494 Rocket 4.1 21:12:32 10° NNW 21:17:24 47° WSW 21:22:17 10° S
Cosmos 1328 Rocket 3.7 21:16:57 10° SSW 21:21:14 49° W 21:25:30 10° N
SAR-Lupe-2 3.7 21:29:12 10° NNE 21:32:45 79° ESE 21:36:19 10° S
NOAA 12 4.2 21:27:53 10° NNE 21:33:10 86° ESE 21:38:30 10° S
Sylda 4400 4.1 21:32:09 12° WSW 21:38:52 60° S 21:42:24 10° E
Cosmos 1743 4.2 21:37:25 10° NW 21:39:38 15° W 21:41:51 10° SW
Hubble Space Telescope 1.9 21:36:00 10° NW 21:39:45 37° NNE 21:43:31 10° E
Cosmos 1666 Rocket 4.1 21:35:38 10° N 21:39:53 62° E 21:44:09 10° SSE
SL-24 R/B 4.4 21:35:53 10° N 21:40:26 48° WNW 21:44:34 10° SSW
DMSP B5D2-2 4.3 21:37:33 10° S 21:42:34 48° WSW 21:47:35 10° NNW
Ariane H10+ 2.3 21:39:47 12° WNW 21:43:13 68° N 21:52:31 10° E
ERS-2 3.7 21:42:16 10° WNW 21:43:19 11° WNW 21:44:05 11° W
Cosmos 2322 Rocket 3.9 21:41:59 10° W 21:43:42 12° WSW 21:45:38 10° SW
Delta 7925 Rocket 3.2 21:39:29 10° WNW 21:44:41 82° SSW 21:49:19 10° ESE
Meteor 2-9 Rocket 4.2 21:44:02 10° N 21:49:45 86° W 21:55:20 10° S
USA 276 2.6 21:49:04 10° WNW 21:51:27 30° SW 21:53:56 10° SSE
Cosmos 2219 3.9 21:47:33 10° SW 21:52:33 31° WNW 21:57:32 10° NNW
HETE-2 4.5 21:51:09 10° W 21:55:07 81° S 21:59:07 10° E
Centaur D-1AR AC-39 3.9 21:55:31 10° W 22:04:34 24° SW 22:08:09 10° SSE
